User: anonymous   Login
Location: ????????
(37.9452°N, 23.1472°E)
Time: 14:09:47
(UTC+00:00)
Language:

Cosmos 2227 Rocket - Orbit

View from above orbital plane
View from above orbital plane
View from above satellite
View from above satellite

Ground track
Ground track

The orbit data is extracted from the following two-line orbital elements,

1 22285U 92093B   24169.46938941  .00000383  00000-0  22134-3 0  9997
2 22285  71.0214 247.1027 0005089 211.8959 148.1856 14.15262753623983
Epoch (UTC): 17 June 2024 11:15:55
Eccentricity: 0.0005089
inclination: 71.0214°
perigee height: 838 km
apogee height: 845 km
right ascension of ascending node: 247.1027°
argument of perigee: 211.8959°
revolutions per day: 14.15262753
mean anomaly at epoch: 148.1856°
orbit number at epoch: 62398

The dashed part of the orbit path shows where the satellite is in the earth's shadow,  

DLR